Weather in Austin

United States     30°24′43″N   97°43′08″W
temp.,
°C
wind,
m/s
gust,
m/s
humid.,
%
clouds,
%
prec.,
mm/h
press.,
hPa
HPBL,
m
16 may, sun
sun1601:00+19se51290100 0.0 1016560
04:00+19se41296100 1.8 1015580
07:00+19se51397100 2.3 1014642
10:00+20se4996100 1.8 1016607
13:00+26s687591 2.4 10131053
16:00+26s57728 5.9 1012885
19:00+25sse588216 8.6 1011559
22:00+22sse5129430 0.9 1012483
17 may, mon
mon1701:00+22sse71395100 0.9 1012718
04:00+22s71395100 0.3 1010857
07:00+22s61394100 0.3 1010824
10:00+24sse488985 0.3 1012759
13:00+25s488533 0.8 1011685
16:00+28sse697043 0.3 1009925
19:00+28sse69730 0.3 1008848
22:00+24se713860 0.0 1009521
18 may, tue
tue1801:00+22sse71494100 0.0 1011659
04:00+22se71390100 0.1 1008855
07:00+23sse61391100 0.2 1010923
10:00+23sse61290100 0.4 10101115
13:00+25sse61182100 1.1 1009746
16:00+29sse8126455 0.4 10071630
19:00+26sse8146999 0.6 1006928
22:00+25s6147927 1.1 1007587
19 may, wed
wed1901:00+23sse81590100 3.9 1009592
04:00+22s5129599 4.3 1008722
07:00+22sse61296100 11.1 1010783
10:00+25sse71188100 0.6 10111006
13:00+28sse81171100 1.1 10101275
16:00+20wsw61089100 12.2 1010351
19:00+19e6796100 15.4 1010357
22:00+18ene71198100 1.9 1012542
20 may, thu
thu2001:00+18e4695100 1.9 1011293
04:00+18se3696100 0.1 1010408
07:00+18se3595100 0.2 1012506
10:00+20sse2384100 0.1 1013594
13:00+25sse3467100 0.1 10131223
16:00+26se336198 0.1 10111385
19:00+24ese447610 0.3 1011450
22:00+21se368955 0.3 1013125